Location: Newark
(51.2667°N, 3.9167°E)
Time: 12:23:15
(UTC+00:00)

OTV 5 (USA 277) - Visible Passes

Search period start: 16 October 2019 00:00
Search period end: 26 October 2019 00:00
Orbit: 310 x 324 km, 54.5° (Epoch: 08 October)

Date Brightness Start Highest point End Pass type
(mag) Time Alt. Az. Time Alt. Az. Time Alt. Az.
16 Oct ? 04:07:19 51° ENE 04:07:19 51° ENE 04:09:39 10° E visible
17 Oct ? 04:21:38 80° SSE 04:21:38 80° SSE 04:24:17 10° ESE visible
18 Oct ? 04:36:01 42° SSW 04:36:02 42° SSW 04:38:40 10° SE visible
19 Oct ? 04:50:31 21° SW 04:50:31 21° SW 04:52:36 10° SSE visible
